Location: Drocourt
(49.0571°N, 1.7669°E)
Time: 06:57:32
(UTC+00:00)

Cosmos 2297 - Pass Details

Date: 09 February 2023
Orbit: 835 x 858 km, 71.0° (Epoch: 30 March)

Event Time Altitude Azimuth Distance (km) Brightness Sun altitude
Rises 19:55:53 0° 333° (NNW) 3,444 7.4 -28.7°
Reaches altitude 10° 19:58:24 10° 337° (NNW) 2,503 6.5 -29.1°
Enters shadow 20:02:24 42° 1° (N) 1,202 4.5 -29.7°
